Regional Weather Roundup
Issued by NWS

Home | Current Version | Previous Version | Text Only | Print | Product List | Glossary Off
Versions: 1 2 3 4 5 6 7 8 9 10 11 12 13 14 15 16 17 18 19 20 21 22 23 24 25 26 27 28 29 30 31 32 33 34 35 36 37 38 39 40 41 42 43 44 45 46 47 48 49 50

249
ASUS44 KLIX 180301
RWRLA
LOUISIANA WEATHER ROUNDUP
NATIONAL WEATHER SERVICE NEW ORLEANS LA
1000 PM CDT THU APR 17 2014

NOTE: "FAIR" INDICATES FEW OR NO CLOUDS BELOW 12,000 FEET WITH NO
      SIGNIFICANT WEATHER AND/OR OBSTRUCTIONS TO VISIBILITY.
      SKY/WX - SKY CONDITION AND SIGNIFICANT WEATHER.
      TMP - AIR TEMPERATURE.    DP   - DEWPOINT TEMPERATURE.
      RH  - RELATIVE HUMIDITY.  PRES - PRESSURE.
      HX  - HEAT INDEX.         WCI  - WIND CHILL INDEX.

*  THESE STATIONS ARE NOT NWS OR FAA STATIONS AND ARE NOT UNDER
   NWS QUALITY CONTROL.

LAZ040-048-061>063-065-066-069-180400-
SOUTHEAST LOUISIANA

CITY           SKY/WX    TMP DP  RH WIND       PRES   REMARKS
N.O. AUDUBON     N/A    N/A N/A N/A MISG        N/A
N.O. INTL ARPT CLOUDY    64  58  80 E14G23    30.11F
N.O. LAKEFRONT CLOUDY    64  60  87 E15       30.13S
N.O. DOWNTOWN* CLOUDY    63  55  77 E9G16     30.12F
SLIDELL        CLOUDY    62  59  90 CALM      30.13R
BATON ROUGE    CLOUDY    63  57  81 N3        30.13S
BOOTHVILLE     LGT RAIN  63  62  97 E24G32    30.06F FOG
BELLE CHASSE   CLOUDY    63  59  87 E12       30.12S
BOGALUSA*        N/A     63  56  79 CALM      30.17R
GALLIANO*      NOT AVBL
NEW ROADS*     NOT AVBL
GONZALES*      CLOUDY    64  59  85 NE6       30.12R
HAMMOND*       NOT AVBL
HOUMA*           N/A     63  59  87 NE13      30.10R
PORT FOURCHON* CLOUDY    64  63  94 E14G22    30.10R

$$

LAZ041-044-053-054-180400-
SOUTHWEST LOUISIANA

CITY           SKY/WX    TMP DP  RH WIND       PRES   REMARKS
LAKE CHARLES   MOCLDY    58  55  90 N5        30.14R
LAFAYETTE      CLOUDY    62  59  90 NE5       30.13R
PATTERSON      CLOUDY    63  59  88 NE9         N/A
SALT POINT       N/A     66  61  84 CALM      30.10R
NEW IBERIA     CLOUDY    64  59  83 NE9       30.13R
CHENAULT AIRPK MOCLDY    57  54  88 NW3       30.15R

$$

LAZ027-028-180400-
CENTRAL LOUISIANA

CITY           SKY/WX    TMP DP  RH WIND       PRES   REMARKS
FORT POLK      CLEAR     55  52  89 NE3       30.15S
ALEXANDRIA INT MOCLDY    57  54  89 N6        30.15R
ALEXANDRIA     CLOUDY    57  54  89 CALM      30.16R FOG

$$

LAZ001-002-180400-
NORTHWEST LOUISIANA

CITY           SKY/WX    TMP DP  RH WIND       PRES   REMARKS
SHREVEPORT     CLOUDY    60  52  74 CALM      30.19R
BARKSDALE AFB  MOCLDY    58  50  76 CALM      30.19R
DTN SHREVEPORT CLOUDY    59  50  72 CALM      30.19R

$$

LAZ014-016-180400-
NORTHEAST LOUISIANA

CITY           SKY/WX    TMP DP  RH WIND       PRES   REMARKS
MONROE         MOCLDY    58  53  84 NE3       30.19R
TALLULAH       CLOUDY    60  56  86 E5        30.18S

$$




USA.gov is the U.S. government's official web portal to all federal, state and local government web resources and services.